EW5697 Weather Reports


Display with metric or nautical units.
time (UTC)temp
F
wind
direction
speed
MPH
gust
MPH
rain 1hr
in
rain 24hr
in
rain mn
in
humidity
%
barometer
mb
20260509184516 68 317 0.0 0.0 0.00 0.00 0.00 47 1020.4
20260509183020 67 309 0.0 0.0 0.00 0.00 0.00 47 1020.5
20260509181508 66 291 0.0 0.0 0.00 0.00 0.00 50 1020.8
20260509180005 65 308 0.0 0.0 0.00 0.00 0.00 51 1020.9
20260509174502 64 16 0.0 0.0 0.00 0.00 0.00 52 1020.8
20260509173108 62 324 0.0 0.0 0.00 0.00 0.00 56 1020.9
20260509171606 61 332 0.0 0.0 0.00 0.00 0.00 56 1021.0
20260509170050 60 330 0.0 0.0 0.00 0.00 0.00 56 1021.2
20260509164546 58 36 0.0 0.0 0.00 0.00 0.00 61 1021.5
20260509163054 57 37 0.0 0.0 0.00 0.00 0.00 62 1021.6
20260509161541 55 35 0.0 0.0 0.00 0.00 0.00 66 1021.5
20260509160035 54 35 0.0 0.0 0.00 0.00 0.00 69 1021.7
20260509154535 52 36 0.0 0.0 0.00 0.00 0.00 74 1021.8
20260509153031 51 36 0.0 0.0 0.00 0.00 0.00 77 1021.8
20260509151530 50 36 0.0 0.0 0.00 0.00 0.00 78 1021.8
20260509150029 48 37 0.0 0.0 0.00 0.00 0.00 79 1021.7
20260509144526 47 39 0.0 0.0 0.00 0.00 0.00 83 1021.8
20260509143029 47 39 0.0 0.0 0.00 0.00 0.00 85 1021.7
20260509141529 45 39 0.0 0.0 0.00 0.00 0.00 85 1021.6
20260509140021 44 39 0.0 0.0 0.00 0.00 0.00 84 1021.7
20260509134520 44 39 0.0 0.0 0.00 0.00 0.00 83 1021.6
20260509133018 44 39 0.0 0.0 0.00 0.00 0.00 82 1021.6
20260509131522 44 39 0.0 0.0 0.00 0.00 0.00 81 1021.4
20260509130017 45 39 0.0 0.0 0.00 0.00 0.00 81 1021.3
20260509124514 44 39 0.0 0.0 0.00 0.00 0.00 81 1021.3
20260509123013 45 39 0.0 0.0 0.00 0.00 0.00 80 1021.4
20260509121512 45 39 0.0 0.0 0.00 0.00 0.00 80 1021.4
20260509120015 45 39 0.0 0.0 0.00 0.00 0.00 79 1021.4
20260509114509 45 39 0.0 0.0 0.00 0.00 0.00 79 1021.5
20260509113008 45 39 0.0 0.0 0.00 0.00 0.00 77 1021.6
20260509111506 46 39 0.0 0.0 0.00 0.00 0.00 77 1021.5
20260509110003 46 39 0.0 0.0 0.00 0.00 0.00 76 1021.5
20260509104503 46 39 0.0 0.0 0.00 0.00 0.00 76 1021.4
20260509103001 46 39 0.0 0.0 0.00 0.00 0.00 74 1021.4
20260509101600 47 39 0.0 0.0 0.00 0.00 0.00 74 1021.4
20260509100109 47 39 0.0 0.0 0.00 0.00 0.00 73 1021.4
20260509094555 48 39 0.0 0.0 0.00 0.00 0.00 70 1021.5
20260509093052 49 39 0.0 0.0 0.00 0.00 0.00 69 1021.4
20260509091551 49 39 0.0 0.0 0.00 0.00 0.00 68 1021.4
20260509090045 50 39 0.0 0.0 0.00 0.00 0.00 65 1021.4
20260509084548 52 39 0.0 0.0 0.00 0.00 0.00 64 1021.5
20260509083040 52 37 0.0 0.0 0.00 0.00 0.00 63 1021.3
20260509081540 53 35 0.0 0.0 0.00 0.00 0.00 60 1021.2
20260509080055 53 6 0.0 0.0 0.00 0.00 0.00 58 1021.2
20260509074538 52 6 0.0 0.0 0.00 0.00 0.00 58 1021.4
20260509073112 53 6 0.0 0.0 0.00 0.00 0.00 59 1021.4
20260509071532 54 6 0.0 0.0 0.00 0.00 0.00 60 1021.3
20260509070030 54 6 0.0 0.0 0.00 0.00 0.00 54 1021.5
20260509064529 54 6 0.0 0.0 0.00 0.00 0.00 53 1021.5
20260509063031 54 6 0.0 0.0 0.00 0.00 0.00 55 1021.5
20260509061526 54 6 0.0 0.0 0.00 0.00 0.00 52 1021.3
20260509060025 55 6 0.0 0.0 0.00 0.00 0.00 55 1021.3
20260509054531 55 50 0.0 0.0 0.00 0.00 0.00 54 1021.1
20260509053024 55 50 0.0 0.0 0.00 0.00 0.00 51 1021.1
20260509051524 56 49 0.0 0.0 0.00 0.00 0.00 52 1021.0
20260509050033 56 50 0.0 0.0 0.00 0.00 0.00 51 1020.8
20260509044522 57 50 0.0 0.0 0.00 0.00 0.00 50 1020.7
20260509043037 59 51 0.0 0.0 0.00 0.00 0.00 46 1020.7
20260509041523 60 51 0.0 0.0 0.00 0.00 0.00 46 1020.5
20260509040020 62 51 0.0 0.0 0.00 0.00 0.00 44 1020.2
20260509034520 64 51 0.0 0.0 0.00 0.00 0.00 42 1019.9
20260509033022 65 51 0.0 0.0 0.00 0.00 0.00 39 1019.8
20260509031521 67 58 0.0 0.0 0.00 0.00 0.00 36 1019.5
20260509030020 69 349 0.0 0.0 0.00 0.00 0.00 33 1019.3
20260509024518 71 8 0.0 0.0 0.00 0.00 0.00 33 1019.0
20260509023023 73 9 0.0 0.0 0.00 0.00 0.00 29 1018.7
20260509021521 74 34 0.0 0.0 0.00 0.00 0.00 26 1018.7
20260509020017 75 299 0.0 0.0 0.00 0.00 0.00 24 1018.6
20260509014517 76 76 0.0 0.0 0.00 0.00 0.00 21 1018.6
20260509013037 77 318 0.0 0.0 0.00 0.00 0.00 22 1018.6
20260509011514 77 65 0.0 0.0 0.00 0.00 0.00 22 1018.6
20260509010022 78 292 0.0 0.0 0.00 0.00 0.00 23 1018.6
20260509004531 79 56 0.0 0.0 0.00 0.00 0.00 23 1018.7
20260509003012 79 35 0.0 0.0 0.00 0.00 0.00 23 1018.7
20260509001510 79 300 0.0 0.0 0.00 0.00 0.00 22 1018.7
20260509000009 79 87 0.0 0.0 0.00 0.00 0.00 25 1018.7
20260508234508 80 93 0.0 0.0 0.00 0.00 0.00 23 1018.8
20260508233006 80 314 0.0 1.0 0.00 0.00 0.00 25 1018.8
20260508231502 80 47 0.0 0.0 0.00 0.00 0.00 25 1018.8
20260508224559 79 291 0.0 0.0 0.00 0.00 0.00 27 1019.1
20260508223059 78 71 0.0 0.0 0.00 0.00 0.00 25 1019.2
20260508221558 79 354 0.0 0.0 0.00 0.00 0.00 26 1019.4
20260508220059 79 301 0.0 0.0 0.00 0.00 0.00 26 1019.5
20260508214554 78 330 0.0 0.0 0.00 0.00 0.00 29 1019.5
20260508213052 78 39 0.0 0.0 0.00 0.00 0.00 30 1019.6
20260508211549 78 345 0.0 0.0 0.00 0.00 0.00 31 1019.8
20260508210104 77 314 0.0 0.0 0.00 0.00 0.00 30 1019.9
20260508204544 76 31 0.0 0.0 0.00 0.00 0.00 32 1020.0
20260508203043 75 15 0.0 0.0 0.00 0.00 0.00 32 1020.0
20260508201539 74 140 0.0 0.0 0.00 0.00 0.00 35 1020.2
20260508200045 73 306 0.0 0.0 0.00 0.00 0.00 34 1020.3
20260508194534 72 314 0.0 0.0 0.00 0.00 0.00 38 1020.5
20260508193031 71 301 0.0 0.0 0.00 0.00 0.00 37 1020.7
20260508191530 71 20 0.0 0.0 0.00 0.00 0.00 38 1020.7
20260508190025 69 296 0.0 0.0 0.00 0.00 0.00 43 1020.7